| time (UTC) | temp F | wind direction | speed MPH | gust MPH | rain 1hr in | rain 24hr in | rain mn in | humidity % | barometer mb |
| 20260903134601 | 53 | 146 | 0.0 | 0.0 | 0.00 | 0.32 | 0.08 | 86 | 1008.5 |
| 20260903133105 | 53 | 146 | 0.0 | 0.0 | 0.00 | 0.32 | 0.08 | 86 | 1008.3 |
| 20260903131552 | 53 | 146 | 0.0 | 0.0 | 0.00 | 0.32 | 0.08 | 85 | 1008.4 |
| 20260903130117 | 53 | 146 | 0.0 | 0.0 | 0.00 | 0.32 | 0.08 | 85 | 1008.2 |
| 20260903124557 | 53 | 146 | 0.0 | 0.0 | 0.00 | 0.32 | 0.08 | 86 | 1008.0 |
| 20260903123049 | 53 | 146 | 0.0 | 0.0 | 0.00 | 0.32 | 0.08 | 87 | 1007.9 |
| 20260903121545 | 53 | 146 | 0.0 | 0.0 | 0.00 | 0.32 | 0.08 | 89 | 1007.7 |
| 20260903120044 | 53 | 146 | 0.0 | 0.0 | 0.00 | 0.32 | 0.08 | 91 | 1007.7 |
| 20260903114544 | 53 | 146 | 0.0 | 0.0 | 0.00 | 0.32 | 0.08 | 91 | 1007.5 |
| 20260903113044 | 53 | 146 | 0.0 | 0.0 | 0.00 | 0.32 | 0.08 | 91 | 1007.6 |
| 20260903111542 | 53 | 146 | 0.0 | 0.0 | 0.00 | 0.32 | 0.08 | 91 | 1007.6 |
| 20260903110044 | 53 | 146 | 0.0 | 0.0 | 0.01 | 0.32 | 0.08 | 89 | 1007.3 |
| 20260903104540 | 53 | 146 | 0.0 | 0.0 | 0.02 | 0.32 | 0.08 | 90 | 1007.1 |
| 20260903103039 | 53 | 146 | 0.0 | 0.0 | 0.04 | 0.32 | 0.08 | 89 | 1007.3 |
| 20260903101538 | 53 | 146 | 0.0 | 0.0 | 0.05 | 0.32 | 0.08 | 90 | 1007.3 |
| 20260903100039 | 53 | 146 | 0.0 | 0.0 | 0.06 | 0.31 | 0.07 | 90 | 1007.2 |
| 20260903094545 | 53 | 146 | 0.0 | 0.0 | 0.05 | 0.30 | 0.06 | 89 | 1007.4 |
| 20260903093034 | 54 | 146 | 0.0 | 0.0 | 0.03 | 0.28 | 0.04 | 90 | 1007.4 |
| 20260903091534 | 54 | 146 | 0.0 | 0.0 | 0.03 | 0.27 | 0.03 | 89 | 1007.2 |
| 20260903090039 | 54 | 146 | 0.0 | 0.0 | 0.01 | 0.25 | 0.01 | 89 | 1007.0 |
| 20260903084531 | 54 | 146 | 0.0 | 0.0 | 0.01 | 0.25 | 0.01 | 88 | 1006.7 |
| 20260903083033 | 54 | 146 | 0.0 | 0.0 | 0.01 | 0.25 | 0.01 | 88 | 1006.6 |
| 20260903081526 | 54 | 146 | 0.0 | 0.0 | 0.00 | 0.24 | 0.00 | 88 | 1006.4 |
| 20260903080024 | 54 | 146 | 0.0 | 0.0 | 0.00 | 0.24 | 0.00 | 87 | 1006.2 |
| 20260903074522 | 54 | 146 | 0.0 | 0.0 | 0.00 | 0.24 | 0.00 | 86 | 1006.1 |
| 20260903073021 | 55 | 146 | 0.0 | 0.0 | 0.00 | 0.24 | 0.00 | 83 | 1005.8 |
| 20260903071518 | 54 | 143 | 0.0 | 0.0 | 0.01 | 0.24 | 0.00 | 84 | 1005.8 |
| 20260903070019 | 54 | 143 | 0.0 | 0.0 | 0.09 | 0.24 | 0.00 | 85 | 1006.0 |
| 20260903064515 | 54 | 142 | 0.0 | 0.0 | 0.11 | 0.24 | 0.24 | 87 | 1005.7 |
| 20260903063024 | 54 | 139 | 0.0 | 0.0 | 0.13 | 0.24 | 0.24 | 86 | 1006.0 |
| 20260903061512 | 54 | 170 | 0.0 | 0.0 | 0.12 | 0.22 | 0.22 | 85 | 1006.5 |
| 20260903060031 | 55 | 252 | 0.0 | 0.0 | 0.06 | 0.15 | 0.15 | 85 | 1006.6 |
| 20260903054509 | 56 | 253 | 0.0 | 0.0 | 0.05 | 0.13 | 0.13 | 84 | 1006.6 |
| 20260903053008 | 57 | 160 | 0.0 | 0.0 | 0.05 | 0.11 | 0.11 | 83 | 1006.2 |
| 20260903051507 | 57 | 150 | 0.0 | 0.0 | 0.05 | 0.10 | 0.10 | 83 | 1005.7 |
| 20260903050008 | 57 | 148 | 0.0 | 0.0 | 0.05 | 0.09 | 0.09 | 82 | 1005.7 |
| 20260903044507 | 56 | 166 | 0.0 | 0.0 | 0.04 | 0.07 | 0.07 | 83 | 1006.0 |
| 20260903043020 | 56 | 176 | 0.0 | 0.0 | 0.05 | 0.06 | 0.06 | 84 | 1006.0 |
| 20260903041506 | 56 | 184 | 0.0 | 0.0 | 0.05 | 0.05 | 0.05 | 84 | 1006.0 |
| 20260903040008 | 57 | 189 | 0.0 | 0.0 | 0.04 | 0.04 | 0.04 | 82 | 1006.0 |
| 20260903034506 | 57 | 189 | 0.0 | 0.0 | 0.03 | 0.03 | 0.03 | 81 | 1006.1 |
| 20260903033005 | 58 | 216 | 0.0 | 0.0 | 0.01 | 0.01 | 0.01 | 79 | 1006.0 |
| 20260903031503 | 59 | 220 | 0.0 | 0.0 | 0.00 | 0.00 | 0.00 | 75 | 1005.9 |
| 20260903024600 | 61 | 223 | 0.0 | 0.0 | 0.00 | 0.00 | 0.00 | 66 | 1005.5 |
| 20260903023107 | 62 | 224 | 0.0 | 0.0 | 0.00 | 0.00 | 0.00 | 63 | 1005.4 |
| 20260903021605 | 63 | 215 | 0.0 | 0.0 | 0.00 | 0.00 | 0.00 | 59 | 1005.4 |
| 20260903014606 | 63 | 187 | 0.0 | 0.0 | 0.00 | 0.00 | 0.00 | 57 | 1005.4 |
| 20260903013101 | 63 | 193 | 0.0 | 0.0 | 0.00 | 0.00 | 0.00 | 57 | 1005.2 |
| 20260903011556 | 64 | 210 | 0.0 | 0.0 | 0.00 | 0.00 | 0.00 | 58 | 1005.2 |
| 20260903010056 | 65 | 207 | 0.0 | 0.0 | 0.00 | 0.00 | 0.00 | 52 | 1005.1 |
| 20260903004555 | 65 | 219 | 0.0 | 0.0 | 0.00 | 0.00 | 0.00 | 53 | 1005.1 |
| 20260903003054 | 65 | 239 | 0.0 | 0.0 | 0.00 | 0.00 | 0.00 | 54 | 1004.9 |
| 20260903001555 | 65 | 226 | 0.0 | 0.0 | 0.00 | 0.00 | 0.00 | 54 | 1004.7 |
| 20260903000054 | 67 | 257 | 0.0 | 0.0 | 0.00 | 0.00 | 0.00 | 54 | 1004.5 |
| 20260902234612 | 69 | 263 | 0.0 | 0.0 | 0.00 | 0.00 | 0.00 | 46 | 1004.3 |
| 20260902233053 | 69 | 274 | 0.0 | 0.0 | 0.00 | 0.00 | 0.00 | 44 | 1004.3 |
| 20260902231606 | 71 | 254 | 0.0 | 0.0 | 0.00 | 0.00 | 0.00 | 40 | 1004.2 |
| 20260902230105 | 71 | 230 | 0.0 | 0.0 | 0.00 | 0.00 | 0.00 | 39 | 1003.6 |
| 20260902224551 | 73 | 257 | 0.0 | 0.0 | 0.00 | 0.00 | 0.00 | 38 | 1003.4 |
| 20260902223051 | 72 | 259 | 0.0 | 0.0 | 0.00 | 0.00 | 0.00 | 36 | 1003.2 |
| 20260902221551 | 74 | 229 | 0.0 | 0.0 | 0.00 | 0.00 | 0.00 | 30 | 1003.2 |
| 20260902220057 | 76 | 237 | 0.0 | 0.0 | 0.00 | 0.00 | 0.00 | 28 | 1002.5 |
| 20260902214650 | 76 | 237 | 0.0 | 0.0 | 0.00 | 0.00 | 0.00 | 29 | 1002.3 |
| 20260902213048 | 77 | 288 | 0.0 | 0.0 | 0.00 | 0.00 | 0.00 | 31 | 1002.2 |
| 20260902211544 | 75 | 45 | 0.0 | 0.0 | 0.00 | 0.00 | 0.00 | 34 | 1002.4 |
| 20260902210043 | 75 | 45 | 0.0 | 0.0 | 0.00 | 0.00 | 0.00 | 37 | 1002.4 |
| 20260902204540 | 75 | 32 | 0.0 | 0.0 | 0.00 | 0.00 | 0.00 | 36 | 1002.6 |
| 20260902203038 | 74 | 31 | 0.0 | 0.0 | 0.00 | 0.00 | 0.00 | 38 | 1002.8 |
| 20260902201539 | 72 | 33 | 0.0 | 0.0 | 0.00 | 0.00 | 0.00 | 40 | 1003.0 |
| 20260902200035 | 72 | 31 | 0.0 | 0.0 | 0.00 | 0.00 | 0.00 | 41 | 1003.2 |
| 20260902194533 | 72 | 31 | 0.0 | 0.0 | 0.00 | 0.00 | 0.00 | 41 | 1003.6 |
| 20260902193030 | 72 | 31 | 0.0 | 0.0 | 0.00 | 0.00 | 0.00 | 39 | 1003.6 |
| 20260902191532 | 73 | 31 | 0.0 | 0.0 | 0.00 | 0.00 | 0.00 | 40 | 1003.9 |
| 20260902190027 | 73 | 31 | 0.0 | 0.0 | 0.00 | 0.00 | 0.00 | 39 | 1004.0 |
| 20260902184525 | 73 | 29 | 0.0 | 0.0 | 0.00 | 0.00 | 0.00 | 41 | 1004.1 |
| 20260902183024 | 71 | 29 | 0.0 | 0.0 | 0.00 | 0.00 | 0.00 | 42 | 1004.3 |
| 20260902181519 | 70 | 23 | 0.0 | 0.0 | 0.00 | 0.00 | 0.00 | 43 | 1004.6 |
| 20260902180017 | 70 | 23 | 0.0 | 0.0 | 0.00 | 0.00 | 0.00 | 43 | 1004.7 |
| 20260902174516 | 69 | 23 | 0.0 | 0.0 | 0.00 | 0.00 | 0.00 | 46 | 1004.9 |
| 20260902173025 | 68 | 23 | 0.0 | 0.0 | 0.00 | 0.00 | 0.00 | 46 | 1005.0 |
| 20260902171509 | 67 | 23 | 0.0 | 0.0 | 0.00 | 0.00 | 0.00 | 48 | 1005.3 |
| 20260902170010 | 66 | 23 | 0.0 | 0.0 | 0.00 | 0.00 | 0.00 | 51 | 1005.3 |
| 20260902164505 | 65 | 318 | 0.0 | 0.0 | 0.00 | 0.00 | 0.00 | 53 | 1005.4 |
| 20260902163001 | 65 | 322 | 0.0 | 0.0 | 0.00 | 0.00 | 0.00 | 50 | 1005.4 |
| 20260902161607 | 64 | 322 | 0.0 | 0.0 | 0.00 | 0.00 | 0.00 | 52 | 1005.4 |
| 20260902160057 | 64 | 322 | 0.0 | 0.0 | 0.00 | 0.00 | 0.00 | 52 | 1005.6 |
| 20260902154553 | 63 | 326 | 0.0 | 0.0 | 0.00 | 0.00 | 0.00 | 53 | 1005.8 |
| 20260902153052 | 63 | 326 | 0.0 | 0.0 | 0.00 | 0.00 | 0.00 | 54 | 1006.0 |
| 20260902151549 | 61 | 314 | 0.0 | 0.0 | 0.00 | 0.00 | 0.00 | 59 | 1006.1 |
| 20260902150049 | 57 | 316 | 0.0 | 0.0 | 0.00 | 0.00 | 0.00 | 63 | 1006.3 |
| 20260902144548 | 57 | 314 | 0.0 | 0.0 | 0.00 | 0.00 | 0.00 | 64 | 1006.5 |
| 20260902143047 | 56 | 327 | 0.0 | 0.0 | 0.00 | 0.00 | 0.00 | 65 | 1006.4 |
| 20260902141547 | 55 | 254 | 0.0 | 0.0 | 0.00 | 0.00 | 0.00 | 66 | 1006.4 |
| 20260902140049 | 55 | 249 | 0.0 | 0.0 | 0.00 | 0.00 | 0.00 | 66 | 1006.5 |